• In Kazakhstan
  • List of Countries
  • For 7 days
  • Water Temperature
  • Satellite Maps
  • Weather Map
  • News
  • Weather Widgets
  • user-avatar
    Login

    Hourly Weather Lansing

    Today, 22 September, Friday

    Time Temperature Precipitation Wind Pressure Humidity
    00:00 +24°C° 0.2 mm 2 mps 740 mmHg 94%
    01:00 +24°C° 0 mm 2 mps 740 mmHg 94%
    02:00 +23°C° 0 mm 2 mps 740 mmHg 95%
    03:00 +23°C° 0 mm 2 mps 740 mmHg 95%
    04:00 +23°C° 0 mm 2 mps 740 mmHg 96%
    05:00 +23°C° 0 mm 2 mps 740 mmHg 96%
    06:00 +23°C° 0 mm 2 mps 741 mmHg 96%
    07:00 +25°C° 0 mm 2 mps 741 mmHg 90%
    08:00 +27°C° 0 mm 2 mps 741 mmHg 84%
    09:00 +28°C° 0 mm 2 mps 741 mmHg 78%
    10:00 +30°C° 0 mm 2 mps 741 mmHg 70%
    11:00 +31°C° 0 mm 2 mps 741 mmHg 62%
    12:00 +34°C° 0 mm 2 mps 741 mmHg 54%
    13:00 +34°C° 0 mm 2 mps 741 mmHg 53%
    14:00 +34°C° 0 mm 2 mps 740 mmHg 52%
    15:00 +34°C° 0 mm 2 mps 740 mmHg 51%
    16:00 +31°C° 0 mm 2 mps 740 mmHg 58%
    17:00 +29°C° 0 mm 2 mps 740 mmHg 65%
    18:00 +27°C° 0 mm 2 mps 740 mmHg 72%
    19:00 +26°C° 0 mm 2 mps 740 mmHg 76%
    20:00 +26°C° 0 mm 2 mps 740 mmHg 80%
    21:00 +25°C° 0 mm 1 mps 740 mmHg 84%
    22:00 +24°C° 0 mm 1 mps 740 mmHg 86%
    23:00 +24°C° 0 mm 1 mps 740 mmHg 88%

    Tomorrow, 23 September, Saturday

    Time Temperature Precipitation Wind Pressure Humidity
    00:00 +23°C° 0 mm 1 mps 740 mmHg 90%
    01:00 +23°C° 0 mm 1 mps 740 mmHg 91%
    02:00 +23°C° 0 mm 1 mps 740 mmHg 91%
    03:00 +23°C° 0 mm 1 mps 740 mmHg 92%
    04:00 +22°C° 0 mm 1 mps 741 mmHg 92%
    05:00 +22°C° 0 mm 1 mps 741 mmHg 92%
    06:00 +22°C° 0 mm 1 mps 741 mmHg 92%
    07:00 +24°C° 0 mm 1 mps 741 mmHg 84%
    08:00 +27°C° 0 mm 2 mps 742 mmHg 75%
    09:00 +29°C° 0 mm 2 mps 742 mmHg 67%
    10:00 +30°C° 0 mm 1 mps 742 mmHg 61%
    11:00 +31°C° 0 mm 1 mps 742 mmHg 56%
    12:00 +33°C° 0 mm 1 mps 742 mmHg 50%
    13:00 +33°C° 0 mm 1 mps 741 mmHg 49%
    14:00 +33°C° 0 mm 1 mps 741 mmHg 48%
    15:00 +33°C° 0 mm 1 mps 741 mmHg 47%
    16:00 +31°C° 0 mm 1 mps 741 mmHg 54%
    17:00 +29°C° 0 mm 1 mps 741 mmHg 60%
    18:00 +27°C° 0 mm 1 mps 741 mmHg 66%
    19:00 +26°C° 0 mm 2 mps 741 mmHg 70%
    20:00 +25°C° 0 mm 2 mps 741 mmHg 74%
    21:00 +24°C° 0 mm 2 mps 741 mmHg 77%
    22:00 +24°C° 0 mm 2 mps 741 mmHg 78%
    23:00 +23°C° 0 mm 2 mps 741 mmHg 78%

    Day after tomorrow, 24 September, Sunday

    Time Temperature Precipitation Wind Pressure Humidity
    00:00 +23°C° 0 mm 2 mps 741 mmHg 79%
    01:00 +21°C° 0 mm 2 mps 741 mmHg 79%
    02:00 +21°C° 0 mm 2 mps 741 mmHg 79%
    03:00 +21°C° 0 mm 2 mps 741 mmHg 80%
    04:00 +21°C° 0 mm 1 mps 741 mmHg 81%
    05:00 +21°C° 0 mm 1 mps 741 mmHg 83%
    06:00 +21°C° 0 mm 1 mps 741 mmHg 85%
    07:00 +23°C° 0 mm 1 mps 741 mmHg 78%
    08:00 +25°C° 0 mm 1 mps 742 mmHg 71%
    09:00 +28°C° 0 mm 2 mps 742 mmHg 64%
    10:00 +29°C° 0 mm 2 mps 742 mmHg 60%
    11:00 +30°C° 0 mm 2 mps 741 mmHg 55%
    12:00 +31°C° 0 mm 2 mps 741 mmHg 51%
    13:00 +32°C° 0 mm 2 mps 741 mmHg 50%
    14:00 +32°C° 0 mm 2 mps 740 mmHg 49%
    15:00 +32°C° 0 mm 2 mps 740 mmHg 49%
    16:00 +30°C° 0 mm 2 mps 740 mmHg 55%
    17:00 +28°C° 0 mm 2 mps 740 mmHg 61%
    18:00 +26°C° 0 mm 2 mps 739 mmHg 68%
    19:00 +25°C° 0 mm 2 mps 740 mmHg 71%
    20:00 +24°C° 0 mm 2 mps 740 mmHg 75%
    21:00 +23°C° 0 mm 2 mps 740 mmHg 79%
    22:00 +23°C° 0 mm 2 mps 740 mmHg 81%
    23:00 +21°C° 0 mm 2 mps 740 mmHg 83%

    25 September, Monday

    Time Temperature Precipitation Wind Pressure Humidity
    00:00 +22°C° 0 mm 1 mps 740 mmHg 85%
    01:00 +21°C° 0 mm 1 mps 740 mmHg 86%
    02:00 +21°C° 0 mm 1 mps 740 mmHg 87%
    03:00 +21°C° 0 mm 1 mps 740 mmHg 89%
    04:00 +21°C° 0 mm 1 mps 740 mmHg 88%
    05:00 +21°C° 0 mm 1 mps 740 mmHg 88%
    06:00 +21°C° 0 mm 1 mps 740 mmHg 88%
    07:00 +23°C° 0 mm 1 mps 741 mmHg 79%
    08:00 +25°C° 0 mm 1 mps 741 mmHg 71%
    09:00 +28°C° 0 mm 1 mps 741 mmHg 63%
    10:00 +29°C° 0 mm 2 mps 741 mmHg 58%
    11:00 +30°C° 0 mm 2 mps 741 mmHg 52%
    12:00 +31°C° 0 mm 2 mps 740 mmHg 47%
    13:00 +31°C° 0 mm 2 mps 740 mmHg 47%
    14:00 +31°C° 0 mm 2 mps 739 mmHg 46%
    15:00 +32°C° 0 mm 2 mps 739 mmHg 46%
    16:00 +30°C° 0 mm 2 mps 739 mmHg 52%
    17:00 +28°C° 0 mm 1 mps 739 mmHg 58%
    18:00 +26°C° 0 mm 1 mps 739 mmHg 65%
    19:00 +25°C° 0 mm 1 mps 739 mmHg 68%
    20:00 +24°C° 0 mm 1 mps 739 mmHg 72%
    21:00 +23°C° 0 mm 1 mps 739 mmHg 76%
    22:00 +23°C° 0 mm 1 mps 739 mmHg 78%
    23:00 +22°C° 0 mm 1 mps 739 mmHg 81%

    26 September, Tuesday

    Time Temperature Precipitation Wind Pressure Humidity
    00:00 +22°C° 0 mm 1 mps 739 mmHg 83%
    01:00 +21°C° 0 mm 1 mps 739 mmHg 84%
    02:00 +21°C° 0 mm 1 mps 739 mmHg 85%
    03:00 +21°C° 0 mm 1 mps 739 mmHg 86%
    04:00 +21°C° 0 mm 1 mps 739 mmHg 87%
    05:00 +21°C° 0 mm 1 mps 739 mmHg 87%
    06:00 +21°C° 0 mm 1 mps 739 mmHg 87%
    07:00 +23°C° 0 mm 1 mps 740 mmHg 79%
    08:00 +26°C° 0 mm 1 mps 740 mmHg 71%
    09:00 +28°C° 0 mm 1 mps 740 mmHg 63%
    10:00 +29°C° 0.1 mm 1 mps 740 mmHg 58%
    11:00 +30°C° 0.1 mm 2 mps 740 mmHg 52%
    12:00 +31°C° 0.1 mm 2 mps 740 mmHg 47%
    13:00 +31°C° 0 mm 1 mps 739 mmHg 48%
    14:00 +31°C° 0 mm 1 mps 739 mmHg 48%
    15:00 +30°C° 0 mm 1 mps 739 mmHg 49%
    16:00 +29°C° 0 mm 1 mps 739 mmHg 53%
    17:00 +28°C° 0 mm 1 mps 739 mmHg 56%
    18:00 +26°C° 0 mm 1 mps 738 mmHg 60%
    19:00 +25°C° 0 mm 1 mps 739 mmHg 62%
    20:00 +25°C° 0 mm 1 mps 739 mmHg 64%
    21:00 +24°C° 0 mm 1 mps 739 mmHg 66%
    22:00 +24°C° 0 mm 1 mps 738 mmHg 68%
    23:00 +23°C° 0 mm 1 mps 738 mmHg 69%

    27 September, Wednesday

    Time Temperature Precipitation Wind Pressure Humidity
    00:00 +23°C° 0 mm 1 mps 738 mmHg 71%
    01:00 +22°C° 0 mm 1 mps 738 mmHg 73%
    02:00 +22°C° 0 mm 1 mps 738 mmHg 75%
    03:00 +21°C° 0 mm 1 mps 738 mmHg 77%
    04:00 +21°C° 0 mm 1 mps 738 mmHg 78%
    05:00 +21°C° 0 mm 1 mps 738 mmHg 79%
    06:00 +21°C° 0 mm 1 mps 738 mmHg 80%
    07:00 +23°C° 0 mm 2 mps 738 mmHg 73%
    08:00 +26°C° 0 mm 2 mps 738 mmHg 65%
    09:00 +28°C° 0 mm 3 mps 738 mmHg 58%
    10:00 +29°C° 0 mm 3 mps 738 mmHg 55%
    11:00 +30°C° 0 mm 3 mps 737 mmHg 51%
    12:00 +32°C° 0 mm 4 mps 737 mmHg 48%
    13:00 +30°C° 0.1 mm 4 mps 737 mmHg 50%
    14:00 +30°C° 0.1 mm 4 mps 736 mmHg 53%
    15:00 +29°C° 0.1 mm 3 mps 736 mmHg 55%
    16:00 +28°C° 0.3 mm 3 mps 736 mmHg 63%
    17:00 +26°C° 0.3 mm 3 mps 736 mmHg 71%
    18:00 +24°C° 0.3 mm 2 mps 735 mmHg 79%
    19:00 +24°C° 0.1 mm 2 mps 735 mmHg 82%
    20:00 +23°C° 0.1 mm 2 mps 735 mmHg 84%
    21:00 +23°C° 0.1 mm 2 mps 735 mmHg 87%
    22:00 +21°C° 0.2 mm 2 mps 735 mmHg 88%
    23:00 +22°C° 0.2 mm 1 mps 735 mmHg 89%
    Show more